This is the latest recevied weather packets stored in our database for station/object KB1YYC. If no packets are shown the sender has not sent any weather packets the latest 10 day(s).
| Time | Temp. | Humidity | Pressure | Rain* | Wind** | Luminosity | Snow |
|---|---|---|---|---|---|---|---|
| 1778074830 | 18.33° C | 74% | 1008.8 hPa | 0 mm | - | 143 W/m² | - |
| 1778074527 | 18.33° C | 74% | 1009 hPa | 0 mm | - | 147 W/m² | - |
| 1778074224 | 18.33° C | 75% | 1008.8 hPa | 0 mm | - | 138 W/m² | - |
| 1778073921 | 18.33° C | 74% | 1008.9 hPa | 0 mm | - | 151 W/m² | - |
| 1778073619 | 17.78° C | 75% | 1008.7 hPa | 0 mm | - | 166 W/m² | - |
| 1778073315 | 17.78° C | 75% | 1008.8 hPa | 0 mm | - | 103 W/m² | - |
| 1778073012 | 17.78° C | 76% | 1008.8 hPa | 0 mm | - | 114 W/m² | - |
| 1778072709 | 17.78° C | 76% | 1008.7 hPa | 0 mm | - | 100 W/m² | - |
| 1778072406 | 17.22° C | 77% | 1008.8 hPa | 0 mm | - | 134 W/m² | - |
| 1778072104 | 16.67° C | 78% | 1008.7 hPa | 0 mm | - | 141 W/m² | - |
| 1778071802 | 16.11° C | 79% | 1008.7 hPa | 0 mm | - | 155 W/m² | - |
| 1778071499 | 16.11° C | 79% | 1008.7 hPa | 0 mm | - | 88 W/m² | - |
| 1778071197 | 16.11° C | 79% | 1009 hPa | 0 mm | - | 103 W/m² | - |
| 1778070895 | 16.11° C | 78% | 1008.9 hPa | 0 mm | - | 126 W/m² | - |
| 1778070592 | 15.56° C | 78% | 1008.9 hPa | 0 mm | - | 155 W/m² | - |
| 1778070289 | 15° C | 80% | 1009.1 hPa | 0 mm | - | 203 W/m² | - |
| 1778069987 | 15° C | 80% | 1009 hPa | 0 mm | - | 192 W/m² | - |
| 1778069684 | 14.44° C | 82% | 1008.9 hPa | 0 mm | - | 244 W/m² | - |
| 1778069381 | 13.89° C | 83% | 1008.9 hPa | 0 mm | - | 219 W/m² | - |
| 1778069079 | 13.89° C | 83% | 1009.3 hPa | 0 mm | - | 135 W/m² | - |
| 1778068775 | 13.89° C | 84% | 1009.3 hPa | 0 mm | - | 124 W/m² | - |
| 1778068473 | 13.89° C | 84% | 1009.2 hPa | 0 mm | - | 92 W/m² | - |
| 1778068171 | 13.89° C | 84% | 1009.3 hPa | 0 mm | - | 74 W/m² | - |
| 1778067869 | 13.33° C | 85% | 1009 hPa | 0 mm | - | 104 W/m² | - |
| 1778067567 | 13.33° C | 85% | 1009.1 hPa | 0 mm | - | 107 W/m² | - |
* Rain latest hour (hover to see other rain measurements)
** Current wind speed in m/s (hover to see current wind gust speed)